Miscellaneous Local Product
Issued by NWS Hastings, NE

Home | Current Version | Previous Version | Graphics & Text | Print | Product List | Glossary On
Versions: 1 2 3 4 5 6 7 8 9 10 11 12 13 14 15 16 17 18 19 20 21 22 23 24 25 26 27 28 29 30 31 32 33 34 35 36 37 38 39 40 41 42 43 44 45 46 47 48 49 50
000
AXUS43 KGID 301502
MISGRI

GID CWA HOURLY WEATHER ROUNDUP
NATIONAL WEATHER SERVICE HASTINGS NE
1000 AM CDT SAT AUG 30 2014

NOTE: "FAIR" INDICATES FEW OR NO CLOUDS BELOW 12,000 FEET WITH NO
SIGNIFICANT WEATHER AND/OR OBSTRUCTIONS TO VISIBILITY.

...SOUTH CENTRAL NEBRASKA...

CITY           SKY/WX    TMP DP  RH WIND       PRES   REMARKS
GRAND ISLAND   SUNNY     69  61  75 NE6       30.00S
HASTINGS       SUNNY     69  60  73 E5        30.00S
KEARNEY        SUNNY     68  61  77 NE7       30.01S
ORD            CLOUDY    61  58  90 CALM      30.00S
YORK           SUNNY     66 N/A N/A N8        29.99S
AURORA         SUNNY     67  63  85 N6        29.99S
LEXINGTON      SUNNY     67  62  83 E7        30.01S
HOLDREGE       SUNNY     67  62  83 E7        30.01R
HEBRON         SUNNY     71  63  75 CALM      29.98F

...NEBRASKA PANHANDLE...

CITY           SKY/WX    TMP DP  RH WIND       PRES   REMARKS
CHADRON        SUNNY     73  56  54 S12       29.90F
ALLIANCE       SUNNY     68  58  70 S14       29.98F
SCOTTSBLUFF    SUNNY     68  56  65 SE9       29.98F
SIDNEY         SUNNY     68  56  65 S14       30.05S

...WESTERN AND NORTH CENTRAL NEBRASKA...

CITY           SKY/WX    TMP DP  RH WIND       PRES   REMARKS
VALENTINE      MOSUNNY   60  58  92 SE7       30.00F
AINSWORTH      MOSUNNY   61  61 100 CALM      30.01S
ONEILL         MOSUNNY   64  59  83 CALM      30.00S
BROKEN BOW     SUNNY     67  61  81 E6        30.00F
IMPERIAL       SUNNY     67  59  75 SE9       30.03F
NORTH PLATTE   SUNNY     66  59  78 E8        30.02S
MCCOOK         SUNNY     67  60  78 E5        30.02S

...EASTERN NEBRASKA...

CITY           SKY/WX    TMP DP  RH WIND       PRES   REMARKS
NORFOLK        MOSUNNY   65  58  78 NW7       29.97S
SO SIOUX CITY  CLOUDY    65  60  84 NW9       29.94S
TEKAMAH        CLOUDY    67  64  90 NW8       29.95R
COLUMBUS       SUNNY     66  61  82 NW3       29.99R
ALBION         MOSUNNY   65  59  82 CALM      29.99S
OMAHA EPPLEY   CLOUDY    66  64  93 NW7       29.95R FOG
OFFUTT AFB     CLOUDY    66  66 100 NW8       29.94R
MILLARD        CLOUDY    66  64  94 NW6       29.95R FOG
LINCOLN        SUNNY     72  65  78 N6        29.97R
NEBRASKA CITY  SUNNY     71  69  93 NW3       29.95S
BEATRICE       SUNNY     71  66  85 CALM      29.97S
FALLS CITY     SUNNY     74  67  78 NW7       29.94R

...NORTHERN KANSAS...

CITY           SKY/WX    TMP DP  RH WIND       PRES   REMARKS
GOODLAND       SUNNY     69  59  70 W6        30.05F
HILL CITY      SUNNY     70  60  70 E9        30.01S
NORTON         SUNNY     70  57  64 E8        30.00S
PHILLIPSBURG   SUNNY     70  61  73 E8        30.00S
SMITH CENTER   SUNNY     72  63  73 E7        30.00S
BELOIT         SUNNY     73  63  68 NE3       29.98S
HAYS           SUNNY     75  59  57 E7        30.01R
RUSSELL        MOSUNNY   72  62  71 E3        29.99S
CONCORDIA      SUNNY     72  64  76 NE3       29.98S
SALINA         SUNNY     76  64  66 NE3       29.98R
TOPEKA         SUNNY     78  70  76 CALM      29.95R



USA.gov is the U.S. government's official web portal to all federal, state and local government web resources and services.